Tampa, FL

4:37 PM EST on November 23, 2017 (GMT -0500)
Tampa International

Weather History for KTPA - January, 2014

Change the Weather History Date:

Sunday, January 12, 2014

  Actual Average Record
Temperature  
Mean Temperature 61 °F 60 °F  
Max Temperature 69 °F 70 °F 83 °F (2013)
Min Temperature 53 °F 51 °F 24 °F (1982)
Degree Days  
Heating Degree Days 4 6  
Month to date heating degree days 82 72  
Since 1 July heating degree days 144 255  
Cooling Degree Days 0 2  
Month to date cooling degree days 20 24  
Year to date cooling degree days 20 24  
Growing Degree Days 12 (Base 50)    
Moisture  
Dew Point 45 °F    
Average Humidity 61    
Maximum Humidity 93    
Minimum Humidity 29    
Precipitation  
Precipitation 0.00 in 0.06 in 2.80 in (1925)
Month to date precipitation 1.18 0.82  
Year to date precipitation 1.18 0.82  
Sea Level Pressure  
Sea Level Pressure 30.15 in    
Wind  
Wind Speed 7 mph (NNE)    
Max Wind Speed 15 mph    
Max Gust Speed 18 mph    
Visibility 10 miles    
Events      
T = Trace of Precipitation, MM = Missing Value Source: NWS Daily Summary

Daily Weather History Graph

Daily Weather History Graph

Search for Another Location

Airport or City:

Trip Planner

Search our weather history database for the weather conditions in past years. The results will help you decide how hot, cold, wet, or windy it might be!

Date:

Astronomy

Jan. 12, 2014 Rise Set
Actual Time 7:22 AM EST 5:54 PM EST
Civil Twilight 6:57 AM EST 6:19 PM EST
Nautical Twilight 6:28 AM EST 6:48 PM EST
Astronomical Twilight 6:00 AM EST 7:16 PM EST
Moon 3:19 PM EST (1/12) 4:22 AM EST (1/12)
Length of Visible Light 11h 22m
Length of Day
10h 31m
Waxing Gibbous, 89% of the Moon is Illuminated
Jan 12
Waxing Gibbous
Jan 15
Full
Jan 24
Last Quarter
Jan 30
New
Feb 6
First Quarter

Hourly Weather History & Observations

Time (EST) Temp. Dew Point Humidity Pressure Visibility Wind Dir Wind Speed Gust Speed Precip Events Conditions
12:53 AM 62.1 °F 60.1 °F 93% 30.04 in 9.0 mi SSW 3.5 mph - N/A   Partly Cloudy
1:53 AM 63.0 °F 61.0 °F 93% 30.05 in 9.0 mi West 6.9 mph - N/A   Partly Cloudy
2:53 AM 64.9 °F 61.0 °F 87% 30.06 in 10.0 mi West 10.4 mph - N/A   Partly Cloudy
3:53 AM 63.0 °F 59.0 °F 87% 30.08 in 8.0 mi NW 10.4 mph - N/A   Partly Cloudy
4:53 AM 60.1 °F 55.0 °F 83% 30.09 in 10.0 mi NNW 12.7 mph - N/A   Clear
5:53 AM 57.0 °F 50.0 °F 77% 30.10 in 10.0 mi NNW 12.7 mph - N/A   Clear
6:53 AM 54.0 °F 48.9 °F 83% 30.12 in 10.0 mi North 8.1 mph - N/A   Scattered Clouds
7:53 AM 54.0 °F 48.9 °F 83% 30.14 in 10.0 mi North 6.9 mph - N/A   Partly Cloudy
8:53 AM 57.0 °F 44.1 °F 62% 30.18 in 10.0 mi North 8.1 mph - N/A   Partly Cloudy
9:53 AM 59.0 °F 42.1 °F 53% 30.22 in 10.0 mi North 10.4 mph - N/A   Clear
10:53 AM 63.0 °F 41.0 °F 45% 30.22 in 10.0 mi NE 6.9 mph - N/A   Scattered Clouds
11:53 AM 64.0 °F 39.9 °F 41% 30.21 in 10.0 mi NNE 8.1 mph - N/A   Scattered Clouds
12:53 PM 66.9 °F 37.0 °F 33% 30.17 in 10.0 mi Variable 5.8 mph - N/A   Scattered Clouds
1:53 PM 66.9 °F 34.0 °F 30% 30.15 in 10.0 mi North 5.8 mph - N/A   Mostly Cloudy
2:53 PM 68.0 °F 37.0 °F 32% 30.14 in 10.0 mi Variable 5.8 mph - N/A   Mostly Cloudy
3:53 PM 68.0 °F 37.0 °F 32% 30.14 in 10.0 mi ENE 3.5 mph - N/A   Partly Cloudy
4:53 PM 68.0 °F 36.0 °F 31% 30.15 in 10.0 mi NE 5.8 mph - N/A   Partly Cloudy
5:53 PM 66.0 °F 39.0 °F 37% 30.17 in 10.0 mi Calm Calm - N/A   Partly Cloudy
6:53 PM 63.0 °F 39.9 °F 43% 30.18 in 10.0 mi ENE 3.5 mph - N/A   Clear
7:53 PM 61.0 °F 39.0 °F 44% 30.19 in 10.0 mi Calm Calm - N/A   Clear
8:53 PM 59.0 °F 39.0 °F 48% 30.20 in 10.0 mi ENE 3.5 mph - N/A   Clear
9:53 PM 57.9 °F 39.9 °F 51% 30.22 in 10.0 mi ENE 5.8 mph - N/A   Clear
10:53 PM 55.9 °F 43.0 °F 62% 30.21 in 10.0 mi East 5.8 mph - N/A   Clear
11:53 PM 55.0 °F 43.0 °F 64% 30.19 in 10.0 mi East 6.9 mph - N/A   Clear